Location: Cronhütte
(48.9135°N, 9.6869°E)
Time: 20:18:38
(UTC+00:00)

Cosmos 1980 Rocket - Pass Details

Date: 23 May 2024
Orbit: 827 x 851 km, 71.0° (Epoch: 23 June)

Event Time Altitude Azimuth Distance (km) Brightness Sun altitude
Rises 01:05:19 0° 322° (NW) 3,427 5.7 -16.4°
Reaches altitude 10° 01:08:16 10° 308° (NW) 2,486 4.8 -16.2°
Maximum altitude 01:12:33 22° 259° (W) 1,759 3.5 -15.9°
Enters shadow 01:14:02 20° 237° (WSW) 1,858 3.5 -15.8°
